Torna al catalogo

FENGYUN 1C DEB

AttivoLEO
NORAD 31378·DEBRIS·🇨🇳 China

Lanciato May 10, 1999 da Taiyuan Satellite Launch Center

Loading…

Prossimi Passaggi (prossime 24 ore)

TLE

AggiornatoSource: Space-Track

Epoca: Sep 13, 2026, 18:53 UTC

1 31378U 99025BSJ 26256.78696801  .00000451  00000-0  43562-3 0  9996
2 31378 100.7453 188.0323 0166657 225.6773 133.0611 13.80530306980182

Traccia FENGYUN 1C DEB in tempo reale con AllMySat

Download on the App Store